Weather History for Texarkana, AR

Change the Weather History Date:

Monday, March 4, 2013

  Actual Average Record
Temperature  
Mean Temperature 64 °F 53 °F  
Max Temperature 78 °F 64 °F 85 °F (1938)
Min Temperature 49 °F 42 °F 20 °F (2002)
Degree Days  
Heating Degree Days 1 13  
Month to date heating degree days 69 52  
Since 1 July heating degree days 2015 2246  
Cooling Degree Days 0 0  
Month to date cooling degree days 0 0  
Year to date cooling degree days 4 4  
Growing Degree Days 14 (Base 50)    
Moisture  
Dew Point 49 °F    
Average Humidity 63    
Maximum Humidity 86    
Minimum Humidity 40    
Precipitation  
Precipitation 0.00 in 0.14 in 1.67 in (1989)
Month to date precipitation 0.00 0.56  
Year to date precipitation 5.45 7.95  
Snow  
Snow 0.00 in - - ()
Month to date snowfall 0.0  
Since 1 July snowfall 2.1  
Snow Depth 0.00 in    
Sea Level Pressure  
Sea Level Pressure 29.74 in    
Wind  
Wind Speed 15 mph (SSW)    
Max Wind Speed 23 mph    
Max Gust Speed 39 mph    
Visibility 10 miles    
Events      
T = Trace of Precipitation, MM = Missing Value Source: NWS Daily Summary

Daily Weather History Graph

Daily Weather History Graph

Search for Another Location

Airport:

Trip Planner

Search our weather history database for the weather conditions in past years. The results will help you decide how hot, cold, wet, or windy it might be!

Date:

Astronomy

Mar. 04, 2013 Rise Set
Actual Time 6:40 AM CST 6:15 PM CST
Civil Twilight 6:15 AM CST 6:40 PM CST
Nautical Twilight 5:46 AM CST 7:09 PM CST
Astronomical Twilight 5:17 AM CST 7:37 PM CST
Moon 12:38 AM CST (3/4) 11:10 AM CST (3/4)
Length of Visible Light 12h 24m
Length of Day
11h 35m
Waning Gibbous, 52% of the Moon is Illuminated
Mar 4
Waning Gibbous
Mar 4
Last Quarter
Mar 11
New
Mar 19
First Quarter
Mar 27
Full

Hourly Weather History & Observations

Time (CST) Temp. Dew Point Humidity Pressure Visibility Wind Dir Wind Speed Gust Speed Precip Events Conditions
12:53 AM 52.0 °F 36.0 °F 54% 29.88 in 10.0 mi South 16.1 mph 21.9 mph N/A   Clear
1:53 AM 52.0 °F 37.9 °F 59% 29.88 in 10.0 mi South 13.8 mph 24.2 mph N/A   Clear
2:53 AM 51.1 °F 39.9 °F 66% 29.85 in 10.0 mi South 12.7 mph 24.2 mph N/A   Clear
3:53 AM 50.0 °F 42.1 °F 74% 29.84 in 10.0 mi South 12.7 mph 23.0 mph N/A   Clear
4:53 AM 50.0 °F 43.0 °F 77% 29.82 in 10.0 mi South 11.5 mph - N/A   Clear
5:53 AM 50.0 °F 45.0 °F 83% 29.81 in 10.0 mi South 12.7 mph - N/A   Clear
6:53 AM 50.0 °F 46.0 °F 86% 29.80 in 10.0 mi South 12.7 mph 20.7 mph N/A   Clear
7:51 AM 51.8 °F 48.2 °F 88% 29.80 in 10.0 mi South 13.8 mph 17.3 mph N/A   Mostly Cloudy
7:53 AM 53.1 °F 48.0 °F 83% 29.80 in 10.0 mi South 15.0 mph 24.2 mph N/A   Mostly Cloudy
8:53 AM 55.0 °F 50.0 °F 83% 29.78 in 10.0 mi South 15.0 mph 21.9 mph N/A   Overcast
9:53 AM 60.1 °F 51.1 °F 72% 29.75 in 10.0 mi SSW 17.3 mph 31.1 mph N/A   Mostly Cloudy
10:10 AM 60.8 °F 51.8 °F 72% 29.74 in 10.0 mi SSW 18.4 mph 29.9 mph N/A   Scattered Clouds
10:53 AM 66.0 °F 52.0 °F 60% 29.73 in 10.0 mi SW 19.6 mph 29.9 mph N/A   Partly Cloudy
11:53 AM 70.0 °F 51.1 °F 51% 29.71 in 10.0 mi SSW 23.0 mph 34.5 mph N/A   Clear
12:53 PM 71.1 °F 52.0 °F 51% 29.68 in 10.0 mi SSW 17.3 mph 36.8 mph N/A   Clear
1:53 PM 75.0 °F 52.0 °F 44% 29.65 in 10.0 mi SSW 20.7 mph 28.8 mph N/A   Clear
2:53 PM 75.9 °F 51.1 °F 42% 29.63 in 10.0 mi SSW 18.4 mph 26.5 mph N/A   Clear
3:53 PM 77.0 °F 51.1 °F 40% 29.63 in 10.0 mi SSW 19.6 mph 27.6 mph N/A   Clear
4:53 PM 75.9 °F 50.0 °F 40% 29.64 in 10.0 mi SSW 17.3 mph 28.8 mph N/A   Clear
5:53 PM 73.9 °F 50.0 °F 43% 29.66 in 10.0 mi SW 11.5 mph 17.3 mph N/A   Clear
6:53 PM 70.0 °F 50.0 °F 49% 29.67 in 10.0 mi South 8.1 mph - N/A   Clear
7:53 PM 68.0 °F 53.1 °F 59% 29.68 in 10.0 mi South 8.1 mph - N/A   Clear
8:53 PM 66.9 °F 54.0 °F 63% 29.69 in 10.0 mi South 10.4 mph - N/A   Clear
9:53 PM 66.0 °F 55.9 °F 70% 29.70 in 10.0 mi South 13.8 mph - N/A   Clear
10:53 PM 64.9 °F 57.9 °F 78% 29.70 in 10.0 mi South 12.7 mph 20.7 mph N/A   Clear
11:53 PM 64.0 °F 57.9 °F 80% 29.70 in 10.0 mi South 12.7 mph - N/A   Clear